Vertical_Velocity
-0 -0 -2 -0 -1 -0 -2 -1 -3 -3 -2 -2 -0 -1 -2 -1 -1 -0 -2 -2 -1 -1 -3 -5 1 -2 -10
0 -1 -0 -2 -0 -1 -1 -2 -1 -2 -1 -1 -4 -0 -2 -4 1 2 -3 -3 -0 -1 5 -6 -3 -2 -0
1 -0 -1 -2 -1 -2 -2 1 -2 -2 -1 -2 -0 -1 0 -0 1 -1 2 1 -4 -0 2 0 -3 -2 -2
-0 0 -1 0 -1 -0 -1 -0 -2 -3 1 -0 1 -1 -1 3 -2 -3 -2 0 -1 -2 -1 -2 -4 -3 -2
-0 -2 1 -0 3 -1 -1 -1 -2 -1 -3 -1 -1 -3 -1 -1 -3 -3 -0 -3 -4 3 -1 -0 -4 -4 -1
-1 1 0 -2 -0 -0 -2 -4 -0 -2 0 0 -1 0 -3 -3 0 1 -2 -4 -6 -1 -1 7 -2 -4 1
-0 -1 1 3 1 -2 -0 -1 -0 -0 -0 -1 -0 -1 -1 -2 -0 -0 -2 -4 -1 -2 -2 -3 -2 -3 -4
-0 -2 -1 -1 1 1 -0 -1 1 -1 -1 1 0 -3 -2 -1 -0 -2 -1 1 -3 -6 -4 3 4 6 3
0 2 2 0 1 0 0 1 0 -0 -2 -3 -3 -0 0 -1 -0 -0 -2 -5 -5 2 -1 -7 -1 4 3
-2 7 -0 1 0 -5 0 -1 -2 4 -4 -5 -3 1 0 -3 -1 -4 2 1 -3 -3 -5 -2 -7 6 -1
7 7 2 -1 -4 1 0 -1 1 -3 -3 -1 -0 -3 0 0 -4 -1 -3 3 -2 -1 -5 -12 -11 -14 -1
7 1 -2 -2 1 1 0 0 -2 -0 1 -2 -4 -0 2 -0 -3 -0 -11 -5 -3 -3 1 -2 -7 -2 -11
1 -0 -0 2 -2 -1 -1 -1 1 1 1 -1 -1 -2 0 1 1 -3 3 0 -4 6 7 -4 -6 2 15
-3 -2 -1 -4 0 2 1 -2 -3 -1 -4 -1 -3 1 2 0 1 -0 -4 1 5 2 13 -2 -6 -10 -5
-1 -4 -5 2 0 0 -0 1 1 -1 0 2 -2 -2 -2 -7 -8 -0 -2 -1 -6 -1 5 10 -11 -7 -7
1 -2 3 2 -0 -4 -1 -0 -1 3 3 -1 0 -1 -4 -2 -2 2 -5 -0 1 1 -4 2 5 -3 -11
3 2 1 -1 3 1 1 -1 -2 -0 -1 0 2 -1 -1 -2 -3 2 7 -0 0 4 -0 -1 -2 -2 -2
Height
5829 5829 5828 5826 5824 5822 5819 5815 5811 5808 5804 5799 5793 5788 5782 5775 5767 5756 5747 5739 5729 5720 5712 5705 5695 5684 5675
5823 5822 5821 5819 5817 5815 5811 5807 5804 5800 5796 5792 5786 5780 5773 5766 5756 5748 5739 5729 5721 5711 5701 5694 5683 5672 5662
5816 5815 5814 5813 5810 5807 5804 5800 5797 5793 5789 5784 5778 5771 5763 5755 5747 5738 5728 5719 5711 5701 5692 5682 5671 5661 5651
5808 5807 5806 5805 5802 5799 5795 5793 5789 5785 5780 5775 5769 5761 5754 5746 5737 5728 5718 5709 5701 5690 5680 5670 5661 5652 5642
5800 5800 5798 5797 5795 5792 5788 5786 5782 5778 5773 5767 5760 5752 5744 5736 5728 5718 5709 5700 5691 5682 5671 5661 5652 5642 5631
5792 5792 5791 5790 5787 5784 5782 5779 5776 5770 5765 5758 5750 5743 5735 5726 5717 5708 5700 5692 5683 5672 5662 5652 5641 5630 5621
5783 5783 5783 5782 5779 5778 5776 5772 5767 5762 5757 5749 5741 5734 5726 5717 5708 5700 5691 5680 5672 5662 5652 5642 5631 5620 5610
5777 5776 5775 5773 5772 5770 5767 5763 5759 5754 5747 5740 5732 5725 5717 5707 5699 5690 5680 5671 5662 5651 5641 5632 5622 5609 5596
5768 5768 5767 5765 5764 5762 5759 5755 5750 5745 5738 5732 5724 5715 5707 5698 5689 5679 5670 5661 5651 5640 5630 5622 5613 5600 5585
5759 5759 5758 5758 5757 5754 5750 5746 5740 5735 5728 5721 5713 5706 5698 5688 5680 5672 5663 5651 5640 5630 5620 5609 5600 5590 5576
5751 5751 5749 5749 5747 5744 5739 5735 5729 5724 5719 5711 5704 5697 5688 5680 5670 5662 5653 5642 5630 5619 5606 5595 5584 5573 5565
5742 5742 5741 5741 5739 5735 5730 5725 5720 5714 5707 5701 5694 5686 5679 5670 5662 5652 5641 5633 5623 5610 5598 5585 5572 5559 5546
5734 5734 5733 5732 5730 5725 5721 5715 5710 5704 5698 5691 5685 5678 5670 5662 5652 5644 5633 5622 5613 5603 5587 5574 5563 5552 5542
5725 5725 5724 5722 5719 5714 5710 5706 5700 5695 5689 5682 5675 5667 5659 5653 5645 5636 5628 5619 5607 5595 5580 5562 5548 5537 5526
5717 5716 5715 5712 5708 5705 5701 5696 5690 5684 5679 5672 5665 5658 5651 5643 5636 5628 5618 5608 5597 5587 5574 5555 5536 5525 5514
5707 5707 5704 5701 5698 5695 5690 5685 5680 5675 5670 5663 5656 5648 5641 5634 5627 5619 5610 5601 5588 5575 5560 5547 5530 5514 5501
5697 5695 5693 5691 5688 5685 5680 5676 5671 5667 5660 5654 5647 5639 5631 5624 5617 5611 5602 5592 5581 5567 5551 5536 5521 5507 5493